Terminal Aerodrome Forecast
Issued by NWS

Home | Current Version | Previous Version | Text Only | Print | Product List | Glossary On
Versions: 1 2 3 4 5 6 7 8 9 10 11 12 13 14 15 16 17 18 19 20 21 22 23 24 25 26 27 28 29 30 31 32 33 34 35
000
FTPQ31 PGUM 212300
TAFPQ
TAF

PTPN 212320Z 2200/2224 22005KT P6SM VCTS BKN017CB BKN130 OVC300
      TEMPO 2200/2202 12010G20KT 4SM TSRA BKN017CB OVC100
     FM220300 VRB07KT P6SM VCSH SCT017 BKN120 OVC300
      TEMPO 2203/2206 -SHRA BKN017 BKN120 OVC300=

USA.gov is the U.S. government's official web portal to all federal, state and local government web resources and services.